RH
77 83 90 90 90 94 95 91 93 97 100 100 99 100 99 99 100 100 99 100 100 100 100 100 100 100 100 100 100 100 99 98 99 96 94 96 99 99 94 90 88 86 90 94 89 86 89 91 92 90 87 86 89 93 92 88 87 90 94 98 99 100 100 99 99 99 95 93 94 95 95 95 95 97 98 95 89 89 89 88 90 91 89 89 87
80 82 89 93 93 96 96 92 94 97 99 100 100 98 98 99 97 97 99 99 100 100 100 100 100 100 98 97 99 99 99 99 99 97 95 95 99 99 95 90 81 79 94 98 89 87 89 90 88 85 84 84 87 93 93 91 93 97 99 100 99 98 99 99 99 93 86 86 89 93 98 99 99 99 98 97 93 90 89 88 91 93 91 92 93
82 79 83 90 91 93 93 93 97 99 97 94 88 83 82 78 73 81 96 100 100 100 100 99 98 97 94 94 97 99 100 99 97 97 97 96 97 98 98 93 81 83 99 99 87 85 89 90 86 81 82 83 85 90 93 94 94 96 99 100 99 99 98 98 97 89 82 84 85 89 93 94 95 97 96 98 97 93 90 90 90 91 93 95 97
80 76 79 86 90 93 96 95 92 86 80 75 69 66 62 59 63 80 97 100 100 100 100 98 97 98 98 98 99 99 100 98 95 95 95 95 95 98 101 94 83 88 100 98 89 84 86 91 88 85 86 85 86 88 92 97 94 93 98 100 99 98 96 95 97 93 86 83 79 79 82 84 86 88 91 94 97 96 93 92 91 92 95 97 99
78 77 79 85 92 95 92 85 80 76 73 67 60 59 63 67 71 84 96 99 100 100 99 99 99 100 100 100 100 100 99 97 95 94 94 94 93 97 102 95 89 92 99 99 92 86 88 91 89 88 89 87 87 89 93 98 94 92 96 99 97 95 93 94 98 98 90 82 77 75 77 77 75 79 84 89 94 96 94 94 94 95 97 97 99
82 82 82 88 95 97 89 79 74 71 69 67 61 61 70 75 74 83 95 100 100 100 100 100 100 100 99 99 99 99 99 96 95 93 95 96 94 97 97 91 92 97 100 100 96 92 92 91 90 89 88 88 88 89 95 98 93 93 96 99 98 94 93 94 96 97 92 87 85 78 72 70 71 74 76 80 92 96 94 97 98 98 99 99 99
84 84 86 92 96 95 93 88 83 77 73 74 73 71 75 81 86 94 99 100 100 100 100 100 99 100 100 100 99 99 99 98 97 95 94 94 93 96 95 90 95 101 100 98 98 97 96 94 91 89 92 94 91 90 97 97 93 94 97 99 95 91 94 94 92 95 92 90 91 82 71 71 77 75 68 70 84 91 93 98 97 96 99 99 95
89 90 91 95 96 96 96 97 97 96 92 87 85 84 86 92 98 100 99 100 100 99 100 99 99 100 99 100 99 98 97 95 92 88 85 87 90 95 97 97 99 101 93 89 95 97 97 99 95 93 97 99 94 94 98 99 96 97 97 97 91 86 91 92 91 93 90 88 93 89 81 81 84 80 73 68 69 76 86 92 92 94 96 94 91
92 94 95 96 97 96 95 95 97 98 97 94 95 95 97 99 99 99 100 100 100 99 98 97 97 99 99 100 100 98 95 92 89 86 87 91 93 94 98 100 100 99 91 87 92 92 90 91 92 96 100 99 98 97 99 100 99 99 97 96 92 87 86 89 93 95 90 88 91 92 88 87 86 83 81 75 66 68 76 79 85 94 92 88 91
91 95 97 96 96 95 93 92 94 95 92 90 90 91 94 96 93 94 97 97 99 99 97 97 94 95 96 97 98 96 95 96 95 95 97 97 95 95 98 100 100 100 98 91 88 89 88 86 88 97 100 98 98 99 100 100 98 100 97 93 92 90 89 91 96 97 93 91 92 90 87 84 82 80 79 78 72 70 69 69 76 83 85 89 94
90 92 94 95 96 96 93 91 91 94 93 90 89 88 90 91 88 89 91 90 91 91 92 93 92 93 93 90 89 85 88 98 100 97 98 97 96 98 99 100 100 99 101 95 88 91 95 93 95 100 100 98 98 99 101 97 96 99 97 93 94 94 96 97 98 98 96 95 93 88 83 82 80 77 77 77 75 71 67 68 72 74 79 88 93
87 89 92 93 94 96 96 94 92 92 93 94 95 94 95 95 92 92 93 91 88 86 85 84 86 90 89 86 83 78 81 92 94 93 95 94 94 97 98 99 100 99 101 96 92 98 100 98 100 100 99 100 99 99 101 98 98 99 96 96 97 96 98 100 99 99 99 97 94 88 84 83 80 77 77 77 75 73 68 67 70 74 77 82 87
87 89 91 92 93 95 96 97 97 96 96 95 97 99 99 99 98 96 96 97 95 92 90 89 89 89 86 83 79 78 80 81 82 88 92 90 90 94 96 99 100 100 101 92 84 93 100 99 100 100 99 100 99 99 100 99 99 100 98 95 96 96 96 98 99 98 95 93 92 89 86 86 83 80 80 80 78 77 71 66 69 74 75 76 83
89 90 91 92 94 95 96 98 99 100 99 98 99 100 100 99 100 99 98 98 97 96 96 95 97 97 94 89 83 82 85 85 86 92 94 92 92 92 94 99 100 99 102 95 83 85 94 98 100 100 99 98 100 100 99 99 99 99 98 95 95 94 90 93 98 94 87 86 87 84 84 87 86 83 83 82 81 78 74 71 72 75 75 77 81
87 87 88 90 93 95 96 97 98 99 99 100 100 100 100 100 100 100 100 100 99 98 97 94 95 98 99 98 95 93 94 95 97 98 97 95 94 93 94 98 100 99 100 100 94 91 94 98 100 100 98 97 98 99 99 100 99 100 100 98 97 95 91 95 97 92 86 86 87 83 83 87 86 84 85 82 79 77 76 75 72 73 76 79 79
84 85 84 85 89 92 93 93 95 97 97 98 98 99 100 99 100 100 99 100 100 100 100 97 95 95 98 99 98 99 100 100 100 100 99 99 97 96 95 97 100 100 100 100 99 99 97 97 99 100 99 97 97 99 100 99 99 100 100 99 98 93 92 97 97 94 91 87 86 86 90 90 83 82 86 84 80 78 79 79 74 69 70 73 75
84 84 83 84 87 89 91 91 93 96 96 95 95 97 98 98 100 100 99 100 100 99 100 100 98 97 97 97 97 98 99 99 99 100 100 100 99 97 97 98 99 100 100 100 100 100 98 97 98 100 100 99 98 99 97 93 91 95 99 100 99 95 95 99 98 99 96 88 87 89 93 92 85 85 88 85 81 81 81 80 75 71 66 65 70
82 83 82 83 85 87 90 91 92 95 95 94 95 97 98 99 99 99 99 100 99 99 99 99 100 100 99 98 98 98 99 99 100 100 100 100 100 99 98 99 100 100 100 100 100 100 100 98 99 100 99 97 98 96 92 88 84 90 97 100 100 98 99 99 97 96 92 88 89 89 91 93 88 86 88 84 80 81 83 81 77 75 70 65 64
82 82 81 81 82 84 88 89 90 93 93 93 95 96 97 98 99 99 98 98 99 99 97 95 97 99 100 100 99 100 100 96 93 96 100 100 99 100 100 99 100 100 99 100 100 100 100 99 99 101 98 95 95 92 89 87 84 84 91 97 100 98 97 98 96 94 88 86 87 85 88 93 86 84 88 85 82 83 85 83 80 79 77 73 68
82 80 78 79 79 82 85 86 87 89 91 91 93 94 96 96 96 97 97 98 99 100 99 95 92 95 99 99 98 99 96 88 83 88 97 100 100 100 100 100 100 100 99 100 100 99 100 100 99 99 97 94 95 92 89 88 83 80 85 96 99 96 97 99 96 93 87 84 85 83 88 93 87 86 90 85 83 85 86 84 82 82 81 78 74
81 78 76 76 78 81 83 84 85 86 88 89 91 92 94 95 96 96 97 97 98 99 100 99 95 95 98 99 98 96 90 89 91 93 97 100 100 99 99 100 100 100 100 99 100 100 100 98 95 94 95 94 93 91 91 92 87 84 91 99 98 95 99 97 90 91 90 86 88 88 90 91 86 87 88 83 84 87 87 87 85 82 81 80 76
80 77 76 76 78 80 81 81 83 84 86 88 89 90 91 93 96 98 98 98 98 99 100 100 99 99 99 99 100 97 92 94 100 100 98 99 100 100 100 100 100 100 100 100 100 100 99 98 96 94 94 93 91 88 90 94 92 89 92 96 96 96 100 97 91 94 95 91 91 91 91 88 85 87 87 83 84 87 87 88 84 80 79 79 76
79 77 76 77 77 77 78 79 80 82 84 85 86 88 89 93 96 98 99 98 98 100 99 100 100 100 100 99 99 100 96 94 98 100 97 96 95 94 94 97 99 99 100 99 100 100 99 99 98 97 95 91 90 88 88 90 89 86 86 89 94 98 99 99 97 97 97 93 90 90 92 91 89 91 90 85 83 86 87 86 83 81 79 78 78
78 77 76 76 75 75 75 77 79 80 81 83 84 85 88 92 93 95 96 96 98 100 99 100 100 99 99 97 96 99 97 94 96 99 100 97 92 88 90 96 99 99 100 100 100 100 99 96 93 94 92 87 88 90 87 88 87 84 83 86 93 98 99 99 98 97 95 92 90 91 94 94 93 94 93 87 84 86 88 85 82 82 81 81 80
79 77 76 74 74 74 75 77 78 78 78 80 81 83 86 90 92 94 95 96 99 100 99 100 100 100 99 96 95 96 96 96 96 97 100 100 98 95 97 99 99 100 100 99 99 100 99 95 88 86 86 86 89 90 88 91 94 91 90 91 93 97 100 98 96 95 95 92 91 92 94 93 94 95 93 88 86 86 86 86 82 80 80 81 81
80 78 76 74 74 75 76 77 77 76 77 79 80 83 85 87 91 93 94 96 99 100 100 99 99 100 100 99 97 95 95 97 98 97 98 99 100 100 100 99 99 100 100 100 100 100 100 96 88 83 83 84 86 86 84 86 90 92 94 95 95 96 97 94 93 96 97 93 92 93 94 93 92 91 89 88 87 85 84 83 82 79 77 78 82
79 76 74 73 74 75 76 77 77 76 77 79 80 83 85 87 90 91 92 97 100 100 100 100 100 100 100 100 99 98 97 96 97 98 99 99 100 100 99 100 100 100 100 100 98 94 95 98 92 82 80 81 81 81 80 78 79 82 84 85 87 91 94 94 97 99 96 92 94 94 93 92 91 89 86 84 84 83 82 80 81 81 79 78 82
77 76 75 75 75 76 76 77 78 76 77 79 80 82 85 87 88 89 92 97 100 100 100 100 100 100 100 100 100 100 99 97 97 98 99 100 100 100 100 100 100 100 100 99 96 90 89 94 91 81 77 79 78 76 75 74 75 77 77 78 82 87 93 97 99 98 93 90 92 92 89 90 91 88 82 79 80 80 80 80 78 77 77 77 80
77 77 77 77 75 75 76 77 77 76 76 78 79 81 83 85 88 91 95 98 100 100 100 100 100 100 100 100 100 100 100 99 98 98 100 100 100 100 100 99 99 100 100 99 97 91 88 88 86 80 79 79 76 74 74 73 74 75 75 77 80 81 86 95 100 98 93 90 89 89 89 89 87 84 80 80 80 76 76 77 75 72 75 79 79
79 78 77 77 76 76 76 76 76 76 76 77 78 80 82 83 87 91 95 98 98 99 100 100 100 100 100 100 100 100 100 100 100 99 100 100 100 100 100 100 100 100 100 100 97 90 87 84 81 79 81 80 75 72 72 73 72 74 75 76 78 77 79 87 94 93 90 89 89 89 87 84 82 80 79 81 80 75 73 72 69 69 73 75 75
78 77 76 76 76 77 77 76 76 76 76 76 78 79 80 81 85 89 93 96 97 98 99 99 100 100 100 100 100 100 100 100 100 100 100 100 100 100 99 99 99 99 99 100 96 90 86 83 82 83 80 77 75 72 72 72 72 73 74 74 75 77 78 80 83 84 85 88 90 88 85 82 81 80 78 77 75 69 64 62 60 61 62 62 64
79 77 77 77 77 78 79 78 77 76 75 75 76 76 77 79 84 88 92 94 95 96 96 96 99 100 100 100 100 100 100 100 100 100 100 100 100 100 99 98 97 97 99 99 96 90 83 80 85 87 78 74 74 72 70 70 70 71 72 72 73 74 75 78 79 81 84 86 87 85 81 78 76 72 68 64 61 58 55 52 51 52 52 51 52
82 80 79 79 79 79 80 79 77 76 75 75 74 73 74 76 80 85 90 91 91 93 95 96 98 99 100 100 100 100 100 100 100 99 99 100 100 100 100 99 98 98 99 97 93 88 81 77 80 80 74 72 72 70 69 68 67 67 69 70 71 72 75 81 85 87 85 84 81 77 72 69 65 61 57 54 52 53 53 52 51 52 53 54 54
85 81 80 82 82 81 80 80 78 77 76 75 72 71 70 71 73 78 85 88 89 91 94 97 99 100 100 100 100 100 100 100 100 98 98 99 100 100 100 100 99 100 97 92 88 85 80 76 74 72 71 71 70 67 66 64 63 65 69 71 74 77 82 88 90 88 82 76 72 67 62 60 59 57 54 52 54 56 57 59 60 61 62 62 60
88 86 83 84 83 81 80 80 79 77 76 74 72 70 67 65 66 69 76 83 88 91 94 98 99 100 100 100 100 100 100 99 98 97 97 99 100 100 100 100 100 98 93 89 86 84 80 75 72 71 69 69 66 63 61 60 60 65 72 76 80 84 87 88 86 80 74 69 66 60 56 58 66 72 65 55 55 59 61 63 64 65 68 68 67
90 89 87 86 84 81 81 81 79 76 75 74 74 72 68 64 63 64 67 75 84 90 95 99 100 100 100 100 100 100 100 100 98 97 97 98 99 100 100 99 98 95 91 89 88 85 80 75 72 70 67 65 62 58 57 58 60 66 75 81 84 86 85 82 77 72 67 65 62 59 59 63 72 80 76 63 57 57 58 61 66 71 74 73 74
90 89 88 85 83 81 80 78 76 74 75 76 76 74 71 67 65 64 63 66 76 86 96 100 99 100 100 100 100 100 100 100 100 99 99 97 96 97 98 96 93 91 89 91 90 87 86 83 77 70 66 63 60 58 61 66 66 66 72 81 84 83 79 77 74 72 69 66 63 61 63 65 66 70 73 68 60 56 57 63 70 75 74 74 78
89 87 84 81 80 80 77 74 73 74 75 76 74 74 72 70 69 67 64 64 69 79 92 100 100 99 100 100 100 100 100 100 100 100 100 98 94 92 92 93 92 88 88 91 91 90 94 95 87 78 72 71 73 76 80 84 80 72 71 78 81 78 76 76 76 75 71 66 66 67 66 67 69 71 74 73 66 61 63 68 72 71 70 76 82
86 84 82 80 79 77 73 71 74 75 75 71 67 69 72 72 71 69 66 67 69 74 86 98 100 99 100 100 100 100 99 99 100 100 100 99 97 92 89 90 92 90 88 91 91 92 98 100 95 90 84 81 85 91 91 90 88 81 76 77 77 75 74 73 71 72 72 72 76 80 78 77 80 81 80 79 73 69 67 67 67 64 65 80 90
85 82 81 80 78 76 75 75 77 77 75 70 66 68 73 75 73 70 68 69 71 74 83 93 97 96 96 98 99 100 99 96 96 98 100 100 99 95 91 92 95 94 90 91 92 94 97 99 97 97 95 91 90 92 92 91 89 85 80 77 75 73 74 76 76 79 84 87 89 91 90 89 90 88 83 79 73 68 66 64 62 58 59 73 89
85 81 78 76 75 75 76 75 73 72 71 71 70 71 73 75 73 72 72 69 69 74 83 90 94 93 92 94 96 99 100 98 93 92 94 99 101 98 93 91 93 95 94 94 94 94 94 95 94 95 96 95 93 92 92 91 88 84 81 78 73 71 72 77 80 80 81 80 80 82 83 84 82 78 72 67 65 64 63 62 59 56 56 64 76
81 77 74 74 74 72 70 68 66 65 65 67 70 72 73 74 74 76 74 62 57 67 80 88 92 92 90 91 91 93 96 99 96 90 89 93 97 98 96 90 88 92 94 94 94 94 94 94 94 93 91 91 90 90 91 90 86 82 79 74 69 68 71 73 74 71 66 61 60 60 62 62 61 59 57 57 57 58 58 58 58 59 61 65 69
82 78 73 72 74 73 70 67 64 63 62 63 66 71 74 75 76 78 72 56 47 53 67 81 89 91 90 90 89 89 91 94 96 93 91 92 92 92 93 91 89 91 92 92 93 93 92 92 92 91 91 90 88 87 88 88 85 81 77 73 71 72 73 71 69 67 62 56 54 55 56 57 57 57 57 57 56 56 56 58 59 61 61 61 59
81 77 72 71 73 74 71 66 64 63 63 62 63 69 74 76 76 75 71 63 54 46 50 66 81 89 91 90 88 87 88 89 91 91 90 91 91 90 89 87 86 86 87 89 91 90 90 90 89 88 87 86 86 87 87 87 86 83 80 78 77 76 74 71 70 69 65 61 61 63 64 64 63 62 62 61 59 57 56 55 54 54 52 50 50
77 73 69 68 70 70 68 66 63 61 61 62 61 65 71 74 71 69 71 72 67 55 50 58 69 79 87 90 88 87 86 87 87 87 86 86 86 86 86 84 83 82 82 83 86 86 86 87 86 87 87 83 81 82 82 83 83 83 83 82 80 78 76 73 70 68 66 66 68 69 68 67 66 64 62 59 56 52 50 48 46 45 44 45 50
77 74 69 66 66 65 63 62 60 57 58 61 61 63 68 68 63 64 68 70 68 65 62 62 63 68 76 83 86 87 86 85 85 84 85 84 83 82 83 83 83 81 79 79 80 79 79 78 79 82 83 80 79 79 79 78 78 78 79 79 77 76 74 71 69 69 71 72 72 71 69 66 64 61 57 54 52 49 46 43 41 38 39 44 52
78 73 67 64 65 65 62 59 56 54 56 59 59 59 61 61 60 62 64 63 62 66 70 70 65 63 66 73 81 85 85 85 84 82 82 82 82 81 81 82 82 80 77 76 75 74 73 72 72 70 68 67 70 75 79 80 78 76 74 74 74 74 72 72 74 76 76 74 72 69 66 63 60 57 54 51 49 46 42 40 40 41 43 48 54
74 69 65 64 64 62 59 55 51 49 51 55 56 55 53 53 57 60 61 61 61 64 69 70 67 64 61 63 71 79 82 83 84 83 82 82 82 81 80 80 80 78 74 72 69 68 68 66 63 61 60 59 60 64 70 77 80 79 77 74 74 74 73 73 76 77 76 73 71 67 64 61 58 55 53 51 49 47 47 49 53 58 61 63 64
72 68 65 65 63 60 57 53 47 43 45 51 55 54 50 51 54 57 59 60 61 65 68 68 66 66 62 58 61 67 73 77 79 80 81 81 80 79 78 77 76 73 71 68 65 64 64 61 57 54 52 52 53 55 59 65 71 76 78 78 77 76 76 76 76 76 74 71 69 65 62 59 57 55 54 54 54 55 59 64 67 71 73 73 73
70 67 65 64 63 62 61 57 48 42 44 50 54 55 53 52 53 54 55 56 58 63 70 70 68 66 64 61 59 57 59 66 69 71 73 74 74 74 73 72 71 69 66 65 64 65 65 63 59 54 51 50 52 52 52 54 58 64 71 75 78 78 78 77 76 74 71 68 65 63 61 59 57 57 58 59 62 65 70 72 73 74 75 74 73
67 66 66 65 63 61 62 59 53 47 47 50 53 55 54 53 54 54 54 53 54 59 66 70 70 66 61 61 61 56 53 55 58 60 62 64 67 70 70 69 68 65 61 59 61 64 66 64 59 55 52 52 52 51 49 49 50 54 61 68 75 78 77 76 74 70 66 63 61 61 61 61 60 60 61 63 66 69 72 73 73 73 73 72 71
Wind_Speed
5 6 7 9 10 11 14 14 13 12 11 12 11 9 8 6 6 7 8 12 15 16 16 16 16 15 14 16 18 19 20 19 17 17 17 16 14 15 15 12 11 15 17 15 15 15 13 12 13 12 13 15 16 15 13 13 14 14 12 11 11 11 10 10 11 11 12 11 9 9 9 7 8 8 7 8 9 9 8 8 7 6 5 5 4
3 6 5 6 8 8 8 8 7 7 7 7 9 12 11 9 5 1 5 10 13 15 15 13 13 12 10 12 15 16 16 16 17 17 16 15 14 14 12 11 14 17 14 12 14 15 14 15 15 14 13 14 15 16 14 13 13 12 11 10 10 12 11 11 14 13 12 12 10 9 7 5 6 6 6 7 9 10 9 8 7 6 5 5 4
6 8 6 4 4 4 3 4 6 11 15 18 21 20 15 11 6 6 9 11 12 13 12 9 11 13 14 14 16 16 15 15 16 16 14 13 14 13 11 12 17 17 12 11 13 14 16 17 17 15 13 13 14 16 16 15 15 14 13 11 11 11 10 13 16 13 10 12 11 7 5 5 4 5 6 7 9 10 9 9 8 7 6 5 4
9 10 7 2 3 6 9 15 20 23 21 19 16 12 8 7 8 7 7 10 10 10 10 10 13 15 15 14 13 12 11 11 12 14 13 13 14 12 11 15 19 16 12 12 14 15 16 17 18 16 15 15 15 16 18 17 17 16 15 14 13 13 12 14 15 13 11 12 8 4 5 5 3 5 8 6 7 8 8 9 8 7 7 5 5
7 8 6 3 10 16 22 24 23 20 15 10 5 6 8 6 5 4 5 8 9 9 11 12 14 13 12 11 9 7 7 7 9 12 12 13 15 12 12 16 18 15 11 12 15 15 16 17 18 18 17 17 16 16 17 18 18 18 18 17 15 16 15 14 14 13 13 12 8 4 4 4 3 6 8 6 6 7 7 8 8 7 7 6 6
7 7 6 9 13 17 21 19 13 12 10 4 3 3 6 6 4 5 6 8 10 10 11 11 11 8 7 8 8 6 5 6 8 11 12 14 16 14 14 16 17 14 12 12 13 14 16 18 18 18 18 20 20 18 17 18 18 19 21 19 16 16 14 14 15 14 14 13 10 6 4 2 4 8 7 4 6 7 6 6 7 7 7 7 7
8 8 9 11 12 11 13 12 9 9 9 6 5 5 4 4 3 4 5 7 8 8 7 7 6 5 6 7 7 6 6 6 7 9 12 15 17 16 16 18 16 11 10 11 13 14 16 17 17 18 19 22 23 20 18 18 18 19 21 20 18 17 14 13 16 16 15 13 9 7 5 3 6 9 6 4 5 6 7 6 7 7 6 6 7
10 10 11 11 10 10 11 11 10 10 10 6 7 6 6 5 5 4 5 5 4 4 4 4 3 4 7 9 9 9 10 11 11 11 14 16 17 16 16 17 14 10 11 14 15 15 16 16 16 17 20 25 24 21 18 16 17 20 22 23 22 20 16 13 14 16 17 14 10 8 5 5 8 7 6 6 5 4 6 6 6 7 7 7 7
12 11 11 10 11 12 12 13 13 14 15 12 9 10 9 8 9 8 5 2 3 3 2 2 3 6 9 11 12 13 14 15 14 14 14 13 13 16 16 15 14 13 14 15 16 16 17 17 17 17 21 24 22 20 18 16 18 21 23 24 23 21 19 15 14 16 17 15 14 11 6 6 8 6 5 6 4 4 5 6 7 7 7 8 7
12 12 12 12 12 12 13 14 14 14 16 16 15 15 12 10 9 9 7 5 5 3 2 2 2 6 8 9 10 14 15 13 11 10 9 9 12 15 16 15 14 12 11 12 15 16 17 18 18 20 21 20 20 20 18 17 20 21 22 23 22 21 19 16 15 15 16 15 15 14 10 9 9 6 6 7 5 4 3 6 9 8 7 7 6
11 12 13 15 16 14 14 15 15 14 13 13 14 15 12 12 11 10 8 7 6 5 4 5 5 5 7 9 11 16 16 11 9 10 10 10 12 13 14 14 14 12 11 13 16 16 18 19 19 21 20 19 19 18 16 18 21 20 19 21 21 19 16 15 15 15 14 14 15 16 13 11 10 7 8 8 7 6 4 5 8 9 8 7 7
11 11 11 13 16 16 17 16 16 15 14 13 13 12 10 10 10 8 7 7 6 5 6 7 9 8 8 9 12 16 17 13 13 14 14 13 13 12 12 13 13 13 12 15 17 19 20 20 20 21 20 19 19 16 14 17 20 19 18 19 20 19 15 14 15 15 14 13 16 17 14 11 10 6 6 8 7 6 6 5 7 9 7 7 8
11 11 10 11 13 14 16 18 18 17 17 15 13 12 10 10 10 9 7 7 6 6 6 8 9 9 11 12 14 15 16 17 17 17 15 15 14 13 13 12 13 14 14 15 17 19 21 20 20 18 19 19 18 15 14 15 16 16 17 19 20 20 17 15 14 15 15 14 15 18 16 12 10 8 6 6 6 7 6 5 7 8 7 7 8
10 10 9 10 12 14 15 17 19 18 18 17 16 15 13 12 12 12 10 9 8 8 8 9 9 9 10 13 14 14 15 16 16 15 14 16 16 14 14 13 12 13 14 16 17 18 20 20 18 17 19 19 16 14 14 13 13 13 15 18 19 20 20 17 15 16 18 16 16 19 18 14 11 10 8 7 8 8 8 7 8 8 8 8 8
9 9 9 10 12 13 13 14 16 16 17 17 17 17 17 16 15 14 14 13 12 11 11 11 11 11 10 11 12 13 13 14 13 12 13 16 16 15 15 14 13 13 13 15 16 17 19 19 17 17 19 20 17 15 13 12 12 12 13 14 16 18 18 16 16 19 19 17 16 17 17 16 14 12 10 8 9 9 9 9 10 8 7 7 7
9 9 10 12 13 14 15 15 15 15 16 16 17 17 17 16 16 16 16 15 15 15 14 13 13 13 12 11 11 12 12 13 11 10 11 14 15 15 16 15 14 13 13 13 14 16 18 19 19 18 17 18 18 15 11 11 12 12 13 13 16 19 18 17 18 19 19 17 16 15 14 15 15 13 12 10 10 10 9 10 11 9 7 5 6
9 9 9 12 14 16 16 16 17 18 18 18 17 16 17 16 15 15 16 16 16 16 16 15 13 14 15 14 14 14 14 12 11 10 10 10 12 14 16 17 15 14 13 11 12 15 18 20 21 19 17 17 18 16 14 14 15 14 14 14 16 19 20 19 18 17 16 16 15 14 12 12 13 14 14 12 11 11 10 10 10 9 8 5 4
9 9 10 12 14 15 15 14 15 16 17 17 16 15 16 16 15 15 15 15 15 16 16 15 13 14 15 15 15 14 13 12 12 12 11 11 12 13 15 16 15 12 10 9 11 14 16 19 20 18 18 19 19 19 19 18 17 15 16 16 15 17 19 17 16 15 15 14 12 12 12 12 14 15 15 13 12 12 11 10 9 9 8 6 5
9 9 9 12 14 15 15 15 15 15 16 17 16 15 16 16 16 16 16 15 15 15 15 14 13 13 13 13 13 12 11 12 14 13 13 14 14 13 14 15 13 11 10 10 11 13 14 16 17 16 18 19 19 20 20 19 17 16 17 18 17 18 17 15 13 14 14 13 12 12 12 13 14 15 14 14 13 12 11 10 9 9 8 7 5
9 8 8 11 13 15 16 16 16 16 16 16 16 15 16 16 15 16 16 16 16 16 15 14 14 13 13 12 11 12 13 14 15 15 14 14 14 13 15 15 13 11 12 11 11 12 13 14 15 16 18 19 19 19 20 19 19 18 18 17 17 18 16 13 12 12 13 14 13 13 13 13 13 14 15 15 14 13 12 11 10 10 10 9 6
9 8 8 11 14 15 16 16 16 15 15 16 15 14 16 16 16 16 16 16 17 16 15 15 15 14 13 12 12 14 16 15 14 13 12 13 14 13 13 13 13 11 12 12 12 12 13 13 16 19 20 20 20 20 21 21 20 19 17 15 15 16 14 13 14 13 13 14 14 13 14 14 14 14 15 14 14 14 13 12 10 10 10 10 8
8 8 9 12 14 15 15 15 15 14 15 16 16 15 17 18 17 17 16 16 16 16 14 15 15 15 14 13 13 14 16 16 13 12 11 12 13 12 10 11 12 12 12 12 12 12 13 13 15 18 19 20 21 21 21 21 19 18 17 16 15 13 12 14 15 15 14 14 14 14 14 14 14 14 14 12 12 13 13 12 11 11 10 11 9
7 8 9 11 13 13 13 14 15 15 16 17 17 16 16 17 16 16 15 16 17 16 15 15 14 15 15 14 13 12 15 16 15 14 13 13 15 15 14 12 12 13 12 13 13 13 14 14 14 16 18 19 20 21 21 20 18 17 18 18 16 13 13 14 14 14 14 14 15 15 15 14 14 14 13 12 12 14 13 12 11 11 10 10 10
7 7 9 11 12 12 12 14 15 16 17 17 16 16 15 15 15 15 15 16 17 16 16 16 15 15 15 14 13 12 13 16 16 15 14 15 18 19 17 13 11 11 13 13 13 14 15 16 17 16 16 19 21 21 20 18 16 16 17 17 16 14 13 14 14 13 14 14 16 16 15 14 14 13 13 13 13 14 13 11 11 12 10 10 11
7 7 8 10 11 12 13 14 15 16 16 16 16 15 15 15 15 16 16 16 16 15 16 17 17 17 15 14 14 13 13 14 16 17 16 17 20 21 17 13 11 12 14 14 14 14 15 19 20 18 18 20 21 20 19 16 15 16 16 17 16 14 13 14 13 14 14 15 16 16 15 15 14 13 13 13 14 14 13 11 11 12 12 11 12
8 7 7 8 10 12 14 15 15 15 16 16 16 16 16 16 16 17 16 16 15 15 15 16 17 18 17 16 15 14 14 15 15 16 16 17 19 20 19 15 13 15 16 16 15 14 15 19 21 21 21 21 20 19 19 17 17 17 17 17 16 15 14 14 13 13 14 14 15 15 15 15 14 14 14 14 15 14 13 12 13 12 12 12 12
6 6 7 8 10 12 14 15 15 15 15 15 15 16 16 17 17 17 17 16 15 15 15 15 16 18 18 17 17 16 16 17 16 16 15 15 16 18 18 17 16 16 16 18 19 19 19 20 21 22 22 21 20 19 19 17 16 16 15 15 15 14 13 13 13 13 13 13 14 14 14 15 14 14 15 15 15 15 14 13 14 13 13 13 12
6 6 8 9 9 11 13 15 15 15 16 15 14 14 15 16 16 17 16 15 14 15 16 15 15 17 18 19 19 18 17 17 17 16 15 14 14 16 17 17 18 17 16 19 22 22 21 22 22 23 23 21 20 20 18 17 15 15 15 14 14 14 13 12 12 12 13 13 13 13 14 14 14 13 14 15 15 15 15 14 15 14 14 13 12
7 8 9 8 9 10 12 14 15 15 16 15 14 14 14 15 16 16 16 16 15 15 16 16 16 17 18 20 20 20 18 17 16 15 15 14 15 17 17 17 18 18 16 18 22 23 23 24 24 23 23 22 21 19 18 16 16 15 15 14 15 15 14 12 11 11 12 13 13 13 13 14 14 14 14 14 14 15 14 15 15 15 15 14 12
8 9 9 8 9 11 12 12 13 14 15 15 14 14 14 15 16 17 17 17 16 16 16 16 17 18 19 19 20 20 20 18 17 16 15 14 15 17 17 17 18 17 15 17 22 24 24 26 26 24 23 22 21 19 16 15 15 15 15 15 15 16 16 14 13 13 14 14 15 14 14 14 14 14 15 15 14 14 13 13 14 14 14 14 13
8 8 8 8 10 11 11 11 12 13 14 14 14 14 15 15 17 18 18 17 16 17 18 17 17 21 22 21 20 20 19 17 16 16 15 14 14 15 16 15 15 18 19 20 23 24 25 25 24 23 23 22 20 18 16 15 15 15 15 15 16 16 16 16 15 16 16 16 15 15 15 15 15 15 15 16 14 13 12 12 11 11 12 12 12
8 8 8 8 9 10 10 11 11 12 13 14 14 14 15 16 17 18 18 17 16 19 23 21 18 22 25 24 22 20 18 16 15 15 15 14 14 13 13 14 16 19 21 21 22 23 23 23 23 23 22 22 20 18 16 15 14 14 14 14 16 16 17 17 18 18 17 17 16 16 16 15 15 14 15 15 15 14 14 16 16 15 13 11 11
7 8 8 8 8 9 10 10 11 12 13 13 13 14 15 16 16 17 19 18 17 20 26 25 21 22 25 25 23 20 18 17 16 16 15 14 13 12 13 16 17 19 19 20 23 23 21 22 23 23 22 21 20 17 15 14 13 13 13 14 15 16 17 18 19 19 19 18 18 18 17 16 15 16 18 20 21 20 20 21 20 19 17 15 13
7 7 8 8 8 9 10 10 11 12 13 13 13 13 14 15 16 18 19 19 18 21 24 24 21 21 24 25 23 20 18 18 17 16 13 10 8 9 11 14 16 18 18 20 22 23 22 21 21 21 21 20 19 17 14 13 13 13 13 14 16 18 19 19 20 20 19 19 20 21 21 22 24 25 25 25 25 25 24 24 23 22 20 18 16
6 7 8 9 9 10 10 10 11 13 14 14 15 14 14 15 17 19 19 18 19 22 23 22 21 21 24 25 23 20 18 18 17 15 11 6 3 1 6 10 14 18 19 20 20 20 21 21 19 20 21 20 18 16 13 13 13 14 14 15 17 19 20 20 19 20 20 22 24 24 26 27 27 26 28 27 26 26 26 24 24 23 21 19 17
6 7 7 8 8 8 9 9 12 16 16 15 16 15 14 16 18 19 19 19 19 22 24 25 22 22 24 25 22 20 19 18 17 16 12 8 7 7 8 10 14 17 17 17 16 16 18 19 20 20 20 19 18 15 14 14 15 15 15 16 19 21 22 22 21 22 23 25 27 27 28 28 24 22 24 25 23 23 23 23 23 23 21 19 17
6 6 7 8 8 8 10 12 16 18 18 16 16 16 15 16 19 19 19 20 21 22 25 24 20 20 23 24 22 19 18 17 18 18 15 12 9 10 11 11 14 17 17 15 14 15 15 15 18 18 17 17 18 16 15 16 17 16 16 18 21 22 22 23 22 22 24 26 27 25 25 25 23 20 21 21 19 19 20 22 22 22 21 20 19
7 9 10 11 12 12 15 17 19 20 19 17 18 18 16 17 18 19 20 22 22 22 22 22 20 19 20 21 22 20 17 17 17 17 15 13 11 12 12 13 15 19 20 18 17 18 16 15 17 18 17 18 20 18 17 18 18 17 17 19 23 24 23 23 21 20 20 22 23 21 20 21 22 21 20 19 16 16 18 20 21 21 21 20 19
10 11 10 11 13 16 20 22 21 19 19 19 21 21 19 18 18 19 21 22 22 20 20 21 22 22 20 19 20 20 18 17 16 15 14 13 14 15 15 16 19 23 23 21 20 20 20 19 20 20 20 21 22 20 18 18 18 18 18 21 24 26 26 26 24 23 21 19 20 21 21 20 20 20 18 15 13 12 15 18 17 18 20 18 15
11 12 10 10 13 16 20 22 21 18 18 19 22 22 19 18 18 20 21 21 20 19 19 20 24 25 23 21 21 18 18 19 18 17 15 14 15 18 20 21 23 26 27 25 24 23 23 23 23 22 22 23 22 20 17 15 16 18 19 21 24 26 27 27 27 27 26 23 21 21 20 19 18 17 15 13 12 11 13 14 14 15 18 17 14
12 14 14 13 14 16 19 21 21 20 19 19 20 20 18 18 19 20 20 20 21 21 20 21 25 26 24 24 23 20 18 19 19 20 19 16 15 18 22 26 27 29 30 29 28 27 26 26 24 23 23 23 21 19 16 15 16 18 18 19 20 23 26 27 27 26 26 24 23 21 20 18 16 16 15 14 13 11 12 13 14 15 18 19 18
14 16 17 17 17 19 21 21 21 22 22 21 20 19 18 19 20 20 20 21 24 25 24 24 26 28 26 24 23 22 21 20 19 21 21 20 19 20 24 28 29 29 31 32 31 29 28 27 26 25 25 24 20 18 16 15 17 19 18 17 18 21 22 22 23 24 25 24 23 22 20 17 16 15 14 14 14 14 15 17 18 19 19 20 20
14 15 17 17 16 17 20 21 21 22 22 22 21 20 18 19 19 18 20 24 27 27 27 27 27 28 28 26 23 22 22 21 21 20 21 22 23 23 25 28 29 30 32 33 31 29 30 29 29 28 27 24 21 19 16 15 17 20 20 18 18 20 19 17 17 21 22 22 22 21 19 16 16 17 17 18 18 19 20 22 22 21 20 19 19
14 15 17 18 16 15 18 20 22 23 22 21 21 20 19 18 18 18 20 24 26 27 28 29 28 27 27 27 25 24 23 22 21 20 21 22 23 23 25 26 27 30 32 32 29 29 30 30 31 30 28 25 23 20 18 16 15 17 18 19 18 17 15 14 16 20 21 21 21 21 20 19 19 21 22 22 23 23 23 23 21 19 17 16 16
16 16 17 18 17 16 16 18 21 23 22 21 20 20 18 17 19 20 21 21 23 26 27 28 29 28 27 26 27 26 26 25 25 24 24 24 24 24 25 26 27 29 31 30 28 28 30 30 30 29 28 27 25 23 21 18 16 14 14 14 14 13 12 14 17 20 21 22 23 24 24 23 23 24 25 25 25 23 22 20 17 16 15 14 14
16 16 16 17 18 18 18 19 21 22 22 21 19 18 17 17 18 20 21 21 23 25 24 24 26 28 28 27 28 27 27 27 27 27 27 27 27 27 28 28 28 30 30 30 28 28 29 28 27 25 24 24 24 23 22 20 18 17 15 14 13 14 15 16 20 23 24 25 26 26 26 26 25 25 24 24 24 21 19 17 15 14 14 15 15
16 16 17 19 19 19 19 20 21 22 22 21 20 20 19 18 18 17 18 20 23 23 22 21 23 25 27 28 28 28 28 28 28 28 28 27 27 28 29 29 29 29 30 30 28 27 26 24 23 21 20 19 19 18 18 17 16 17 16 15 15 16 16 19 23 26 27 28 27 27 26 26 25 24 23 23 21 19 18 17 16 15 16 17 17
16 16 17 18 18 19 19 20 20 21 21 20 21 21 21 20 20 18 17 18 22 23 21 20 21 22 25 27 27 27 28 29 29 29 28 27 27 27 28 28 27 26 27 28 27 26 24 23 21 19 17 16 15 14 14 13 13 13 13 13 14 15 16 19 23 26 27 27 27 26 25 25 24 23 23 22 20 19 19 19 19 20 20 20 20
15 15 15 16 17 17 18 18 19 19 20 19 19 19 20 21 22 22 20 19 20 21 20 20 20 21 22 24 25 25 25 26 27 28 28 27 26 25 25 25 24 22 22 23 23 22 21 20 20 18 17 16 15 13 12 11 10 9 9 10 12 14 17 21 24 26 26 26 26 25 25 24 23 23 23 22 21 21 21 21 22 22 21 20 20
12 12 13 14 15 15 16 17 18 19 19 20 19 18 19 21 22 23 23 21 20 18 16 16 19 20 20 21 22 23 24 24 24 25 25 26 25 24 23 23 21 20 19 18 18 18 16 16 17 17 16 15 14 13 12 10 9 8 7 7 10 14 19 23 25 25 25 25 25 24 24 23 23 23 23 23 23 23 23 23 22 21 20 20 21
10 10 11 12 14 15 16 17 19 20 20 20 19 19 19 20 21 22 23 24 23 20 15 14 15 18 19 19 19 21 22 22 22 23 23 23 24 23 23 21 19 18 17 17 17 16 14 12 13 14 13 13 12 12 11 9 8 8 6 7 10 14 19 22 23 23 23 23 23 23 22 22 21 22 23 23 23 24 24 23 23 22 22 22 22
Wind_Direction
232 220 202 204 213 215 219 221 224 229 235 242 245 249 252 240 216 202 201 216 224 225 226 224 221 221 224 223 223 229 235 232 230 234 235 237 239 234 232 235 246 253 251 248 247 240 226 225 233 223 211 214 220 224 220 213 203 196 191 183 177 170 166 177 177 163 154 150 155 165 169 180 197 203 205 205 206 205 202 200 190 181 184 182 186
235 231 196 189 212 212 217 232 243 265 297 319 352 0 359 13 23 326 226 223 225 226 226 224 224 231 248 247 239 241 245 239 235 241 244 245 244 238 236 237 246 254 248 245 253 241 224 221 225 221 215 220 223 222 222 215 199 193 187 177 179 178 170 175 174 164 162 161 155 157 156 161 183 189 195 209 212 208 205 205 197 190 194 193 192
248 254 241 205 218 233 263 330 11 30 33 38 39 32 24 13 334 267 244 232 227 230 235 251 257 258 263 262 260 256 255 250 242 247 252 250 250 245 242 243 249 252 234 231 247 239 228 221 218 222 223 227 226 218 219 216 201 198 199 188 178 177 175 179 179 174 170 162 154 155 155 153 164 179 192 210 214 211 207 205 202 201 203 203 207
255 256 256 254 358 17 44 58 63 67 64 56 42 17 351 309 272 250 237 239 242 246 254 264 260 258 254 250 261 263 263 267 255 253 258 257 260 257 250 252 259 257 227 221 244 245 235 225 221 225 228 233 231 217 214 214 206 202 205 200 180 172 173 182 187 184 173 165 161 161 161 177 204 187 185 196 204 204 201 203 206 207 210 215 219
282 271 277 19 51 65 80 81 75 75 77 76 57 330 312 293 259 236 233 248 264 265 259 256 249 253 257 254 268 272 264 274 268 264 266 264 267 265 258 262 270 268 240 229 247 249 239 231 230 228 229 236 234 220 212 211 209 206 208 205 190 179 173 177 190 192 186 180 171 158 164 200 215 173 172 185 191 188 186 197 211 215 218 221 218
343 334 358 56 76 86 91 89 82 73 65 56 83 33 331 313 276 245 241 254 266 264 258 256 251 255 268 267 271 266 250 259 267 271 272 271 271 268 265 268 269 263 246 236 240 240 235 235 234 229 228 235 234 223 215 213 209 207 209 202 191 189 175 171 186 191 192 190 177 176 201 236 179 166 175 181 179 191 189 188 208 220 219 217 215
15 16 39 71 83 87 84 84 86 70 45 345 339 39 23 332 296 277 275 266 263 263 264 262 253 251 259 260 260 250 238 247 262 268 269 273 274 268 264 264 259 247 240 242 238 232 227 228 234 234 229 232 232 224 217 216 211 207 208 200 195 195 181 175 187 188 193 198 194 193 202 197 165 168 186 175 166 194 200 194 209 214 206 207 215
36 40 58 75 79 79 75 68 57 44 39 6 340 17 42 44 32 359 314 283 284 291 280 266 253 244 241 237 233 230 229 235 240 242 250 262 270 267 261 257 250 239 244 251 243 231 225 224 230 233 230 229 229 224 218 214 210 210 209 203 201 197 189 187 190 189 194 198 199 200 197 178 166 171 189 182 176 184 189 200 210 209 207 208 216
51 54 63 69 71 73 68 61 55 46 47 46 36 40 48 50 41 31 19 11 30 19 349 307 255 238 235 231 228 233 235 235 237 240 242 250 260 264 260 255 248 240 243 252 251 240 230 225 223 226 228 226 222 221 220 212 211 214 209 203 202 200 199 199 194 193 197 195 192 191 183 166 165 173 185 182 189 183 183 194 185 187 208 213 213
56 60 61 59 59 59 56 56 58 54 51 49 49 51 55 56 47 42 41 38 38 33 18 352 265 236 239 240 236 238 238 232 235 243 242 242 252 257 255 253 250 237 225 240 253 247 234 224 220 220 221 220 218 219 218 217 220 219 209 204 205 204 202 200 200 198 199 199 191 183 174 166 167 178 187 185 189 195 200 189 179 180 191 199 201
54 57 57 56 55 49 46 48 49 53 53 47 45 46 52 56 52 52 47 32 17 0 336 311 288 251 243 253 254 251 242 220 214 230 233 231 237 246 250 251 253 241 223 235 242 237 233 226 218 220 218 217 220 218 216 222 224 218 209 208 208 206 200 198 204 201 199 202 195 188 183 179 180 182 188 190 188 194 194 170 178 185 179 180 188
51 51 47 48 49 45 41 39 37 42 43 40 38 37 39 42 42 48 45 30 13 348 322 304 289 269 255 260 264 262 249 227 218 224 224 225 230 236 242 244 246 237 228 241 237 220 221 221 216 218 219 219 221 217 214 219 222 217 209 209 210 208 202 198 202 201 198 201 198 197 198 194 194 192 188 195 199 200 193 164 167 179 177 175 177
49 45 39 38 38 37 36 34 31 31 31 30 27 25 26 26 25 27 23 11 357 337 314 297 285 270 260 260 265 265 254 243 238 233 226 227 231 229 230 229 231 224 216 232 238 219 215 220 218 216 215 218 218 214 213 213 214 213 209 211 214 214 211 204 203 203 204 206 204 203 206 204 204 207 202 203 202 194 189 168 158 171 174 172 177
47 43 39 36 30 28 30 31 30 27 24 24 22 19 19 16 15 14 7 358 348 333 315 302 295 283 267 263 266 263 254 250 250 247 237 235 234 230 228 224 224 224 214 222 239 234 224 224 222 217 216 218 215 210 210 208 207 209 211 216 220 221 218 211 207 210 213 215 213 212 213 211 207 212 215 205 195 190 186 167 153 166 173 168 183
44 42 40 38 31 26 26 30 32 29 24 21 18 16 13 12 10 8 3 360 353 337 317 307 307 300 284 271 270 267 264 266 265 259 247 242 241 236 234 233 229 229 223 220 233 239 235 231 227 223 222 221 218 213 207 204 204 207 210 216 222 223 219 213 211 214 216 215 214 215 217 217 214 216 220 207 195 195 187 171 159 161 170 170 187
32 32 32 29 29 26 23 24 24 23 23 21 18 16 13 8 5 4 2 359 356 347 332 320 313 307 300 290 285 283 281 281 279 269 253 246 245 243 241 240 233 230 230 221 219 225 227 227 228 227 225 222 221 215 203 201 208 214 215 213 218 221 216 212 212 213 215 215 215 215 215 218 217 213 216 209 198 200 190 178 174 171 172 175 189
31 29 27 23 25 26 23 20 15 13 14 15 14 15 14 9 4 2 0 357 353 349 344 338 325 311 306 302 298 296 292 288 281 273 264 253 249 247 245 244 237 231 231 222 213 215 217 220 224 226 224 221 219 214 207 209 212 219 224 216 213 215 211 208 209 208 211 212 215 215 208 210 212 209 213 209 200 202 194 184 186 186 185 178 175
36 30 27 26 28 26 23 20 14 12 11 10 11 11 12 10 7 3 359 355 350 345 343 343 335 321 310 306 305 302 296 289 280 272 268 261 252 248 246 245 240 232 230 222 213 213 215 218 222 223 223 222 220 216 215 215 211 213 224 224 217 212 207 205 207 207 209 209 210 213 206 206 210 209 211 210 203 202 197 190 191 195 197 188 170
34 29 25 26 27 24 22 19 14 13 11 11 14 14 13 12 10 9 5 359 352 346 342 336 331 326 316 309 307 300 291 282 274 268 265 260 255 251 248 244 240 237 239 229 216 213 213 214 216 218 220 221 220 218 217 215 209 207 217 224 223 216 207 202 203 204 205 203 203 205 203 205 207 206 208 209 205 202 197 192 192 195 199 194 185
31 27 25 24 25 23 23 20 17 16 13 11 12 11 11 10 7 6 4 1 358 354 349 338 326 318 313 311 301 284 279 275 268 263 262 258 254 251 247 244 241 240 241 233 220 216 214 212 213 216 219 219 217 217 215 212 209 206 208 215 220 216 207 200 197 197 198 196 197 199 199 200 198 199 204 204 203 204 198 192 192 193 197 195 195
30 21 22 24 24 25 25 23 20 18 14 11 9 7 8 7 3 1 359 357 355 353 351 344 331 314 302 300 292 281 280 279 268 260 259 257 259 256 248 247 247 242 237 231 222 217 215 216 218 220 221 220 217 214 210 207 205 203 200 206 216 213 206 204 197 193 194 192 191 193 194 196 194 193 197 197 199 202 196 192 192 190 193 196 196
28 17 17 22 23 22 19 16 12 10 10 8 5 5 7 7 4 360 355 352 350 345 341 339 332 318 302 291 289 287 286 282 271 262 258 257 260 258 247 247 248 241 234 229 222 215 214 215 216 220 222 220 216 212 207 203 198 197 198 205 213 208 200 203 196 189 191 188 187 190 191 194 193 189 189 191 194 195 189 188 192 189 190 195 195
27 18 17 20 21 15 9 6 4 3 4 3 2 2 2 3 2 357 352 352 351 345 339 333 326 317 307 295 290 291 288 283 277 273 268 258 254 253 248 243 239 236 232 228 221 214 211 210 208 214 219 216 212 207 204 201 194 194 197 200 205 204 199 201 194 186 186 186 187 191 191 192 191 187 187 189 191 191 187 185 189 189 189 191 192
28 24 23 21 18 11 7 5 3 1 359 357 357 357 357 358 358 355 352 354 353 348 342 336 325 317 312 303 297 295 291 285 280 278 271 257 254 256 251 241 231 231 232 229 221 213 210 211 209 210 214 211 206 201 198 196 192 193 196 197 200 201 199 201 196 187 185 186 189 191 190 192 190 184 184 187 189 190 189 187 187 188 190 193 195
31 25 24 22 17 11 8 4 1 358 356 354 351 349 350 349 352 355 353 352 353 350 346 339 330 324 320 312 304 300 295 287 279 275 269 261 261 260 253 243 231 227 230 228 221 214 211 212 209 206 208 206 201 197 195 191 188 190 192 194 197 195 194 197 196 192 191 191 193 192 191 191 188 182 181 183 184 185 186 187 185 185 189 195 201
36 24 21 23 17 12 8 3 359 355 354 352 347 344 342 340 345 351 348 345 348 348 345 340 335 331 327 323 314 306 299 292 283 277 273 268 266 262 257 249 233 223 224 222 216 213 213 213 207 200 202 203 198 195 194 190 188 189 189 191 192 191 191 193 192 192 193 193 194 194 192 190 187 183 181 180 181 183 184 184 184 185 186 191 200
41 28 27 26 18 13 9 1 356 354 352 348 343 341 341 340 344 350 347 344 345 345 343 341 337 332 330 328 322 314 305 295 288 284 280 277 271 265 260 252 236 223 218 215 213 214 214 214 209 201 198 199 196 193 192 189 186 186 185 186 189 188 185 186 187 188 189 191 191 192 191 189 186 185 184 182 182 185 186 185 186 185 181 186 199
40 33 31 27 17 11 6 359 354 351 348 345 342 342 344 344 347 351 351 348 346 347 350 349 344 338 332 328 325 320 313 302 294 289 283 279 276 268 261 251 238 225 214 214 215 212 207 209 209 202 196 195 194 193 192 188 184 184 185 186 186 184 179 178 182 183 183 184 185 187 189 189 188 186 185 184 185 188 190 189 191 190 184 187 199
40 34 30 24 15 10 4 358 352 348 345 345 344 346 347 349 352 353 353 353 352 352 355 355 352 346 337 332 327 323 318 309 300 292 283 278 278 271 259 245 234 224 214 214 215 207 200 202 204 200 195 193 193 194 192 188 186 187 187 186 185 186 184 178 174 174 177 177 178 182 186 188 189 186 185 188 189 190 191 192 193 193 190 191 195
38 30 23 16 11 9 3 357 351 346 345 346 347 350 351 352 354 354 353 355 356 355 356 355 355 351 344 338 334 329 325 318 307 298 289 279 274 268 255 239 227 220 215 213 211 204 198 198 197 195 194 193 190 191 190 189 190 190 188 185 186 189 189 183 176 173 174 175 178 184 186 186 187 187 187 189 191 193 196 199 201 201 200 198 193
40 32 22 12 9 7 0 356 351 347 349 350 349 352 355 356 357 355 354 355 358 0 0 357 354 356 355 351 345 338 332 325 314 304 296 286 276 267 255 237 221 218 218 213 207 201 198 199 198 193 190 189 187 187 187 188 189 189 188 187 187 189 190 188 184 179 178 179 181 184 185 184 186 189 191 191 194 196 193 188 185 183 185 185 179
42 35 24 12 8 3 355 353 350 351 356 354 352 357 1 2 0 358 358 359 359 5 9 7 360 0 3 1 356 350 341 336 328 314 303 294 284 270 250 234 224 219 215 208 204 201 197 196 195 191 186 185 186 185 184 185 186 187 189 191 193 193 191 190 187 183 182 182 181 182 183 185 187 189 187 182 176 169 158 149 144 143 144 147 151
40 32 24 15 8 0 354 352 354 358 359 356 357 2 4 4 4 4 5 4 3 6 12 12 6 4 7 6 3 359 353 348 340 325 314 303 287 266 242 230 221 213 207 202 202 200 193 187 186 184 182 183 181 179 179 183 186 187 190 194 195 192 188 186 185 184 183 180 177 175 172 169 168 168 164 157 149 142 137 134 133 131 130 128 127
36 30 25 12 4 3 359 357 0 5 4 3 5 6 4 8 13 14 14 13 11 9 9 9 5 4 9 10 7 5 3 1 355 339 328 319 293 255 226 214 204 199 197 194 195 193 186 182 181 179 179 179 175 173 177 183 184 182 184 188 188 183 181 181 180 179 177 173 170 166 157 150 148 148 148 145 140 136 133 130 127 125 122 120 118
35 28 22 10 6 8 6 2 9 15 13 11 11 7 6 13 18 20 19 17 15 12 10 9 6 4 10 13 10 8 10 12 9 360 353 358 10 163 183 182 179 181 182 183 185 185 178 175 176 177 178 174 168 168 175 180 178 175 176 180 178 175 174 173 171 169 166 162 158 154 148 146 145 143 145 145 142 138 134 130 126 122 120 119 117
42 31 18 9 9 10 7 11 24 29 24 16 12 8 8 16 20 20 19 18 19 18 15 14 10 7 11 15 12 12 16 19 19 17 18 31 54 77 101 129 147 155 160 166 170 167 163 164 168 172 173 167 160 162 171 177 177 174 174 175 173 170 168 165 161 160 158 154 151 149 147 147 143 139 141 143 143 141 138 133 128 124 122 119 114
49 43 31 24 23 22 26 34 39 39 31 20 16 14 13 19 20 19 20 21 22 20 15 13 10 6 12 18 17 17 21 24 26 26 27 36 59 78 88 108 128 131 128 130 134 133 135 143 150 156 161 156 150 152 165 174 177 175 172 169 167 163 158 154 153 154 151 148 146 147 148 145 141 141 141 143 145 145 140 136 131 127 123 117 112
49 49 45 42 41 39 43 48 46 41 35 29 28 25 20 21 20 19 23 24 21 18 15 15 16 12 13 20 23 24 27 30 31 30 29 36 59 80 90 101 112 115 113 111 116 116 110 109 120 130 137 138 136 141 156 166 170 174 173 168 164 158 149 143 141 138 138 141 143 145 148 146 143 144 145 145 147 145 139 136 134 131 124 117 114
54 54 47 43 45 47 51 52 47 38 35 39 42 38 29 24 21 22 26 25 19 13 12 18 28 30 25 24 27 28 33 38 38 34 31 38 59 81 96 99 100 104 107 106 107 106 97 96 105 115 124 128 128 134 149 158 163 168 169 165 161 154 145 139 135 132 132 139 145 146 148 147 144 143 144 144 144 143 136 135 136 132 126 121 119
52 56 51 43 44 46 49 49 43 36 37 43 47 45 36 28 25 26 26 22 17 14 13 22 37 42 39 35 33 31 36 45 49 47 43 44 59 78 92 94 91 95 100 101 100 96 89 87 93 101 110 119 123 131 144 155 158 160 163 162 157 147 137 132 133 134 133 135 141 142 141 141 141 140 139 136 134 135 133 133 136 136 132 131 131
54 57 57 54 52 50 50 48 46 44 44 43 45 45 39 35 33 29 23 20 22 25 25 31 41 46 47 44 41 37 38 48 58 63 59 52 54 69 83 87 86 87 90 92 93 94 89 85 86 89 94 102 112 122 133 144 148 150 154 157 149 138 133 130 129 129 128 128 130 130 130 134 137 137 136 134 133 135 136 136 137 135 135 136 136
59 60 61 60 58 55 53 50 49 49 48 45 45 44 41 40 37 29 25 30 35 36 36 40 46 49 49 49 47 44 43 44 55 69 70 63 60 66 75 83 87 86 84 84 86 88 87 84 82 82 85 90 98 108 119 131 140 142 144 144 138 133 134 131 125 122 123 123 124 124 125 131 135 135 132 129 129 131 130 126 122 122 127 131 131
57 58 61 62 58 54 53 51 48 48 47 46 45 42 38 38 36 31 33 40 42 42 41 43 48 51 51 51 50 49 49 46 49 62 70 70 69 70 72 78 83 82 81 79 79 81 82 78 74 74 79 85 92 100 110 121 132 136 136 136 134 132 133 132 129 129 128 127 127 126 125 129 130 127 123 122 123 123 119 115 114 117 121 124 124
60 61 64 64 60 54 54 52 49 46 45 45 45 43 38 35 34 34 38 42 43 45 45 44 47 50 53 54 54 53 55 53 51 55 61 63 66 69 70 73 75 77 78 76 73 74 76 73 70 69 73 78 84 92 98 104 115 126 131 133 133 132 134 139 141 138 135 132 129 126 125 126 126 123 122 122 120 116 113 112 114 117 119 121 122
65 65 65 64 61 58 54 50 46 45 44 44 45 45 39 36 38 40 40 40 42 45 45 44 46 49 51 55 58 58 57 57 56 57 58 59 60 63 66 69 71 74 76 75 71 70 71 71 70 69 71 74 77 80 82 86 94 105 113 122 129 131 137 143 137 131 129 129 128 126 126 127 126 125 125 121 114 112 111 113 115 118 119 122 123
64 62 62 62 61 58 53 47 43 43 44 45 46 44 38 35 40 44 43 42 44 45 43 42 46 49 50 53 57 60 60 61 60 59 61 63 65 67 67 68 69 71 73 73 71 69 70 71 71 70 70 71 72 72 75 77 82 88 94 103 113 120 128 132 129 127 129 130 129 130 130 129 127 126 122 115 111 111 111 111 112 114 116 119 122
64 63 64 62 58 54 49 44 40 41 44 46 46 44 39 32 35 41 45 48 49 47 42 39 42 48 51 52 54 56 60 62 62 62 63 65 67 70 70 68 67 69 71 71 69 67 67 68 68 68 67 66 68 71 75 77 79 83 88 94 102 112 121 125 127 129 132 132 131 130 129 127 124 120 114 111 110 110 107 106 106 109 113 119 122
69 70 69 64 59 55 49 42 40 42 45 47 46 46 42 37 35 39 44 49 51 51 47 42 42 46 51 53 54 55 57 60 62 63 63 62 61 64 66 65 64 67 70 70 67 63 61 60 59 57 54 55 60 63 67 73 79 86 91 96 103 114 123 128 131 133 133 131 130 128 126 124 120 116 112 110 108 105 104 106 108 110 111 113 114
73 72 70 66 61 57 48 42 43 44 46 47 47 46 44 41 40 41 43 47 51 52 50 48 47 47 48 52 56 57 58 60 62 63 63 61 59 59 63 65 64 65 70 75 75 72 67 62 59 54 47 44 46 48 53 62 72 83 97 109 119 128 134 136 138 139 137 133 131 129 127 124 121 118 115 111 109 108 109 111 113 113 112 112 111
75 72 69 65 59 52 46 43 46 48 48 48 49 48 46 43 41 41 43 45 47 48 47 48 50 49 48 50 54 58 60 62 64 65 65 64 61 59 60 63 63 62 63 68 73 75 74 69 67 65 59 52 49 49 51 56 64 75 97 123 136 142 143 142 142 143 141 137 132 129 127 126 123 120 117 116 116 116 116 116 116 115 114 114 113
78 75 70 64 57 51 47 46 50 51 51 51 51 50 48 45 43 43 44 44 45 44 43 45 51 54 54 52 52 56 60 63 65 67 68 68 66 63 61 61 63 64 65 66 67 68 69 68 70 74 76 75 72 69 66 65 70 78 93 123 142 149 148 145 145 146 143 138 134 131 128 127 125 123 122 123 123 122 120 117 116 114 114 114 114